DL1GHN-6 Weather Reports


Display with metric or nautical units.
time (UTC)temp
F
wind
direction
speed
MPH
gust
MPH
rain 1hr
in
rain 24hr
in
rain mn
in
humidity
%
barometer
mb
20260502130254 80 284 2.0 6.0 0.00 0.00 0.00 39 1018.2
20260502123755 80 180 3.0 6.0 0.00 0.00 0.00 39 1018.6
20260502123254 80 85 2.0 7.0 0.00 0.00 0.00 38 1018.6
20260502122754 80 201 6.0 8.0 0.00 0.00 0.00 38 1018.7
20260502122253 80 251 3.0 9.0 0.00 0.00 0.00 44 1018.8
20260502121754 80 329 1.0 3.0 0.00 0.00 0.00 41 1018.8
20260502121253 80 163 1.0 4.0 0.00 0.00 0.00 42 1018.9
20260502120754 80 326 1.0 3.0 0.00 0.00 0.00 40 1019.0
20260502120254 80 102 2.0 5.0 0.00 0.00 0.00 40 1019.0
20260502115754 80 290 4.0 6.0 0.00 0.00 0.00 40 1019.1
20260502115254 80 267 3.0 5.0 0.00 0.00 0.00 43 1019.2
20260502114755 79 304 4.0 6.0 0.00 0.00 0.00 38 1019.3
20260502114254 79 227 5.0 8.0 0.00 0.00 0.00 38 1019.2
20260502113755 79 93 3.0 6.0 0.00 0.00 0.00 42 1019.3
20260502113255 78 300 2.0 4.0 0.00 0.00 0.00 39 1019.4
20260502112755 79 303 3.0 8.0 0.00 0.00 0.00 39 1019.5
20260502112255 79 250 3.0 9.0 0.00 0.00 0.00 39 1019.6
20260502111753 79 281 5.0 8.0 0.00 0.00 0.00 39 1019.7
20260502111253 79 229 2.0 6.0 0.00 0.00 0.00 39 1019.7
20260502110754 78 336 3.0 6.0 0.00 0.00 0.00 41 1019.8
20260502110253 78 63 1.0 3.0 0.00 0.00 0.00 40 1019.8
20260502105754 78 259 3.0 4.0 0.00 0.00 0.00 41 1019.9
20260502105254 78 263 3.0 7.0 0.00 0.00 0.00 39 1020.0
20260502104754 78 175 1.0 7.0 0.00 0.00 0.00 43 1019.9
20260502104254 77 234 1.0 3.0 0.00 0.00 0.00 41 1020.0
20260502103754 77 49 1.0 2.0 0.00 0.00 0.00 42 1020.1
20260502103255 78 270 2.0 4.0 0.00 0.00 0.00 42 1020.2
20260502102754 78 332 3.0 5.0 0.00 0.00 0.00 42 1020.3
20260502102255 77 267 3.0 5.0 0.00 0.00 0.00 45 1020.4
20260502101755 76 240 0.0 3.0 0.00 0.00 0.00 48 1020.4
20260502101255 75 115 1.0 5.0 0.00 0.00 0.00 45 1020.5
20260502100755 75 236 1.0 6.0 0.00 0.00 0.00 43 1020.6
20260502100254 75 246 3.0 5.0 0.00 0.00 0.00 44 1020.7
20260502091255 73 295 3.0 7.0 0.00 0.00 0.00 43 1021.4
20260502090754 72 285 2.0 4.0 0.00 0.00 0.00 46 1021.6
20260502090254 72 288 2.0 4.0 0.00 0.00 0.00 43 1021.6
20260502071253 62 248 0.0 3.0 0.00 0.00 0.00 50 1022.0
20260502070753 61 202 3.0 5.0 0.00 0.00 0.00 53 1022.1
20260502070254 60 157 1.0 2.0 0.00 0.00 0.00 59 1022.1
20260502065753 59 263 1.0 3.0 0.00 0.00 0.00 60 1022.2
20260502065254 58 156 1.0 3.0 0.00 0.00 0.00 65 1022.2
20260502064754 57 126 1.0 1.0 0.00 0.00 0.00 69 1022.2
20260502064254 56 110 0.0 0.0 0.00 0.00 0.00 69 1022.2
20260502063754 55 110 0.0 1.0 0.00 0.00 0.00 69 1022.2
20260502063255 54 179 0.0 1.0 0.00 0.00 0.00 71 1022.2
20260502062755 53 157 0.0 1.0 0.00 0.00 0.00 72 1022.2
20260502062254 53 158 0.0 1.0 0.00 0.00 0.00 72 1022.2
20260502061754 53 158 0.0 1.0 0.00 0.00 0.00 72 1022.2
20260502061255 52 158 0.0 0.0 0.00 0.00 0.00 73 1022.2
20260502060755 52 159 0.0 1.0 0.00 0.00 0.00 73 1022.2
20260502060255 51 165 0.0 1.0 0.00 0.00 0.00 74 1022.2
20260502055755 51 275 0.0 1.0 0.00 0.00 0.00 75 1022.4
20260502055254 50 274 0.0 1.0 0.00 0.00 0.00 76 1022.3
20260502054755 50 279 0.0 2.0 0.00 0.00 0.00 77 1022.3
20260502054253 49 292 3.0 5.0 0.00 0.00 0.00 78 1022.4
20260502053755 48 277 3.0 5.0 0.00 0.00 0.00 80 1022.3
20260502053254 48 279 2.0 4.0 0.00 0.00 0.00 81 1022.3
20260502052753 47 250 2.0 4.0 0.00 0.00 0.00 82 1022.2
20260502052255 47 288 2.0 3.0 0.00 0.00 0.00 83 1022.1
20260502051754 46 329 0.0 2.0 0.00 0.00 0.00 83 1022.0
20260502051254 46 5 0.0 1.0 0.00 0.00 0.00 82 1022.0
20260502050754 45 71 0.0 1.0 0.00 0.00 0.00 82 1021.9
20260502050254 45 28 0.0 2.0 0.00 0.00 0.00 81 1021.9
20260502045754 44 17 0.0 1.0 0.00 0.00 0.00 81 1021.9
20260502045254 44 281 0.0 0.0 0.00 0.00 0.00 81 1021.9
20260502044753 44 281 1.0 3.0 0.00 0.00 0.00 81 1021.9
20260502044253 44 90 0.0 2.0 0.00 0.00 0.00 80 1021.9
20260502043754 44 90 0.0 1.0 0.00 0.00 0.00 80 1021.9
20260502043253 44 116 1.0 2.0 0.00 0.00 0.00 80 1021.9
20260502042755 44 98 1.0 2.0 0.00 0.00 0.00 80 1022.0
20260502042254 44 146 0.0 1.0 0.00 0.00 0.00 80 1022.0
20260502041755 44 146 0.0 0.0 0.00 0.00 0.00 79 1022.0
20260502041254 44 146 0.0 1.0 0.00 0.00 0.00 79 1021.9
20260502040753 44 145 0.0 2.0 0.00 0.00 0.00 79 1021.9
20260502040255 44 149 0.0 2.0 0.00 0.00 0.00 79 1021.9
20260502035755 44 154 0.0 0.0 0.00 0.00 0.00 78 1021.8
20260502035254 44 154 0.0 1.0 0.00 0.00 0.00 78 1021.9
20260502034755 45 138 0.0 2.0 0.00 0.00 0.00 78 1021.9
20260502034255 45 137 0.0 2.0 0.00 0.00 0.00 78 1021.8
20260502033754 45 86 1.0 2.0 0.00 0.00 0.00 77 1021.8
20260502033255 45 61 0.0 0.0 0.00 0.00 0.00 77 1021.8
20260502032754 45 61 0.0 1.0 0.00 0.00 0.00 77 1021.8
20260502032025 45 59 1.0 2.0 0.00 0.00 0.00 76 1021.8
20260502031525 45 60 1.0 2.0 0.00 0.00 0.00 75 1021.8
20260502031025 46 116 0.0 0.0 0.00 0.00 0.00 76 1021.8
20260502030524 46 116 0.0 1.0 0.00 0.00 0.00 75 1021.8
20260502030023 46 119 1.0 2.0 0.00 0.00 0.00 75 1021.9
20260502025525 46 109 0.0 2.0 0.00 0.00 0.00 74 1021.9
20260502025023 47 114 0.0 1.0 0.00 0.00 0.00 74 1021.9
20260502024524 47 114 0.0 0.0 0.00 0.00 0.00 74 1021.9
20260502024024 47 114 0.0 1.0 0.00 0.00 0.00 74 1022.0
20260502023523 47 114 0.0 1.0 0.00 0.00 0.00 72 1021.9
20260502023024 47 114 0.0 2.0 0.00 0.00 0.00 72 1021.9
20260502022524 48 88 0.0 1.0 0.00 0.00 0.00 72 1021.9
20260502022023 48 88 0.0 1.0 0.00 0.00 0.00 72 1021.9
20260502021523 48 97 0.0 2.0 0.00 0.00 0.00 71 1021.9
20260502021023 49 319 0.0 0.0 0.00 0.00 0.00 70 1021.9
20260502020523 49 51 0.0 0.0 0.00 0.00 0.00 69 1021.9
20260502020024 50 54 0.0 0.0 0.00 0.00 0.00 68 1022.0
20260502015523 50 111 0.0 0.0 0.00 0.00 0.00 67 1022.0
20260502015023 51 133 0.0 0.0 0.00 0.00 0.00 66 1022.1
20260502014524 51 128 0.0 1.0 0.00 0.00 0.00 66 1022.1
20260502014023 51 109 0.0 1.0 0.00 0.00 0.00 65 1022.0
20260502013524 52 109 0.0 2.0 0.00 0.00 0.00 64 1022.1
20260502013025 52 289 0.0 1.0 0.00 0.00 0.00 64 1022.2
20260502012525 52 271 1.0 3.0 0.00 0.00 0.00 63 1022.1
20260502012025 52 269 0.0 3.0 0.00 0.00 0.00 63 1022.0
20260502011524 53 288 1.0 5.0 0.00 0.00 0.00 63 1021.9
20260502011024 52 328 1.0 4.0 0.00 0.00 0.00 62 1021.9
20260502010525 52 85 1.0 3.0 0.00 0.00 0.00 63 1021.9
20260502010023 53 295 1.0 3.0 0.00 0.00 0.00 62 1021.8
20260502005525 53 313 1.0 4.0 0.00 0.00 0.00 63 1021.8
20260502005024 53 300 0.0 3.0 0.00 0.00 0.00 63 1021.8
20260502004524 53 38 0.0 3.0 0.00 0.00 0.00 62 1021.8
20260502004024 53 360 1.0 2.0 0.00 0.00 0.00 62 1021.9
20260502003523 54 46 2.0 3.0 0.00 0.00 0.00 61 1021.8
20260502003023 54 5 2.0 2.0 0.00 0.00 0.00 60 1021.8
20260502002524 54 311 0.0 3.0 0.00 0.00 0.00 60 1021.8
20260502002024 55 295 4.0 5.0 0.00 0.00 0.00 59 1021.9
20260502001523 56 297 3.0 5.0 0.00 0.00 0.00 57 1021.9
20260502001023 56 280 4.0 6.0 0.00 0.00 0.00 56 1021.9
20260502000523 58 321 2.0 4.0 0.00 0.00 0.00 53 1022.0
20260502000025 58 279 2.0 4.0 0.00 0.00 0.00 51 1022.1
20260501235523 60 293 3.0 6.0 0.00 0.00 0.00 50 1022.1
20260501235025 61 308 4.0 6.0 0.00 0.00 0.00 46 1022.2
20260501234525 63 276 6.0 8.0 0.00 0.00 0.00 42 1022.2
20260501234024 64 244 2.0 6.0 0.00 0.00 0.00 38 1022.2
20260501233525 64 136 4.0 8.0 0.00 0.00 0.00 39 1022.1
20260501233025 63 134 3.0 11.0 0.00 0.00 0.00 39 1022.1
20260501232524 63 116 2.0 7.0 0.00 0.00 0.00 39 1022.1
20260501232024 63 118 3.0 9.0 0.00 0.00 0.00 39 1022.1
20260501231525 63 119 2.0 6.0 0.00 0.00 0.00 39 1022.1
20260501231025 63 139 2.0 5.0 0.00 0.00 0.00 40 1022.1
20260501230525 63 146 2.0 8.0 0.00 0.00 0.00 40 1022.1
20260501230024 63 143 2.0 8.0 0.00 0.00 0.00 41 1022.1
20260501225525 62 110 3.0 8.0 0.00 0.00 0.00 41 1022.1
20260501225023 60 138 3.0 8.0 0.00 0.00 0.00 44 1022.1
20260501224523 59 126 3.0 8.0 0.00 0.00 0.00 47 1022.2
20260501224024 57 132 2.0 5.0 0.00 0.00 0.00 51 1022.2
20260501223523 54 108 5.0 11.0 0.00 0.00 0.00 57 1022.1
20260501223024 51 88 4.0 10.0 0.00 0.00 0.00 65 1022.2
20260501222524 49 57 0.0 2.0 0.00 0.00 0.00 72 1022.3
20260501222024 49 360 0.0 2.0 0.00 0.00 0.00 72 1022.3
20260501221524 49 348 0.0 1.0 0.00 0.00 0.00 72 1022.4
20260501221024 49 330 0.0 1.0 0.00 0.00 0.00 72 1022.4
20260501220523 49 298 0.0 1.0 0.00 0.00 0.00 72 1022.4
20260501220025 49 317 0.0 3.0 0.00 0.00 0.00 72 1022.4
20260501215524 50 320 0.0 0.0 0.00 0.00 0.00 72 1022.4
20260501215024 50 46 0.0 0.0 0.00 0.00 0.00 71 1022.4
20260501214525 50 34 0.0 0.0 0.00 0.00 0.00 70 1022.4
20260501214025 50 15 0.0 0.0 0.00 0.00 0.00 70 1022.4
20260501213525 50 15 0.0 0.0 0.00 0.00 0.00 70 1022.4
20260501213025 51 15 0.0 0.0 0.00 0.00 0.00 70 1022.4
20260501212524 51 79 0.0 0.0 0.00 0.00 0.00 69 1022.3
20260501212025 51 137 0.0 0.0 0.00 0.00 0.00 68 1022.2
20260501211523 51 137 0.0 1.0 0.00 0.00 0.00 67 1022.2
20260501211024 51 137 1.0 1.0 0.00 0.00 0.00 68 1022.2
20260501210523 52 136 0.0 1.0 0.00 0.00 0.00 67 1022.2
20260501210023 52 136 0.0 1.0 0.00 0.00 0.00 67 1022.2
20260501205524 52 126 1.0 2.0 0.00 0.00 0.00 66 1022.2
20260501205023 52 162 0.0 1.0 0.00 0.00 0.00 65 1022.2
20260501204524 53 162 0.0 1.0 0.00 0.00 0.00 65 1022.1
20260501204023 53 162 1.0 2.0 0.00 0.00 0.00 64 1022.1
20260501203523 53 175 0.0 1.0 0.00 0.00 0.00 63 1022.2
20260501203024 54 175 0.0 2.0 0.00 0.00 0.00 63 1022.2
20260501202524 54 138 0.0 2.0 0.00 0.00 0.00 61 1022.2
20260501202023 54 147 2.0 2.0 0.00 0.00 0.00 61 1022.2
20260501201525 55 150 1.0 1.0 0.00 0.00 0.00 60 1022.2
20260501201024 55 150 0.0 2.0 0.00 0.00 0.00 60 1022.2
20260501200524 56 155 2.0 3.0 0.00 0.00 0.00 59 1022.1
20260501200025 56 160 1.0 1.0 0.00 0.00 0.00 58 1022.1
20260501195525 56 159 1.0 2.0 0.00 0.00 0.00 58 1022.0
20260501195025 57 156 0.0 3.0 0.00 0.00 0.00 57 1022.0
20260501194525 57 162 1.0 2.0 0.00 0.00 0.00 57 1022.0
20260501194024 58 165 1.0 3.0 0.00 0.00 0.00 55 1022.0
20260501193524 58 150 1.0 2.0 0.00 0.00 0.00 57 1021.9
20260501193023 59 133 2.0 3.0 0.00 0.00 0.00 55 1021.9
20260501192525 59 124 2.0 3.0 0.00 0.00 0.00 54 1021.8
20260501192024 60 156 1.0 3.0 0.00 0.00 0.00 55 1021.8
20260501191524 60 163 1.0 3.0 0.00 0.00 0.00 54 1021.8
20260501191024 60 168 2.0 3.0 0.00 0.00 0.00 53 1021.7
20260501190523 61 159 1.0 3.0 0.00 0.00 0.00 52 1021.7
20260501190023 62 163 1.0 3.0 0.00 0.00 0.00 52 1021.7
20260501185524 63 155 1.0 2.0 0.00 0.00 0.00 52 1021.6
20260501185024 64 148 1.0 2.0 0.00 0.00 0.00 51 1021.7
20260501184525 64 148 1.0 2.0 0.00 0.00 0.00 50 1021.6
20260501184023 65 150 0.0 1.0 0.00 0.00 0.00 49 1021.6
20260501183525 66 154 0.0 2.0 0.00 0.00 0.00 48 1021.5
20260501183025 67 59 1.0 3.0 0.00 0.00 0.00 47 1021.4
20260501182524 69 76 1.0 3.0 0.00 0.00 0.00 46 1021.3
20260501182025 69 327 0.0 1.0 0.00 0.00 0.00 43 1021.4
20260501181523 70 327 0.0 2.0 0.00 0.00 0.00 40 1021.3
20260501181025 70 338 1.0 2.0 0.00 0.00 0.00 33 1021.3
20260501180524 71 338 1.0 3.0 0.00 0.00 0.00 32 1021.2
20260501180024 71 5 1.0 3.0 0.00 0.00 0.00 31 1021.2
20260501175524 71 338 2.0 3.0 0.00 0.00 0.00 31 1021.1
20260501175023 72 17 2.0 3.0 0.00 0.00 0.00 30 1021.2
20260501174523 72 341 2.0 3.0 0.00 0.00 0.00 31 1021.1
20260501174024 72 343 4.0 5.0 0.00 0.00 0.00 31 1021.1
20260501173524 72 23 2.0 4.0 0.00 0.00 0.00 31 1021.1
20260501173023 72 323 1.0 3.0 0.00 0.00 0.00 30 1021.1
20260501172523 73 331 2.0 6.0 0.00 0.00 0.00 30 1021.1
20260501172023 73 297 3.0 5.0 0.00 0.00 0.00 32 1021.1
20260501171525 74 360 2.0 6.0 0.00 0.00 0.00 31 1021.1
20260501171024 74 5 4.0 6.0 0.00 0.00 0.00 29 1021.0
20260501170525 74 282 2.0 4.0 0.00 0.00 0.00 30 1021.1
20260501170024 74 330 3.0 7.0 0.00 0.00 0.00 28 1021.1
20260501165525 74 321 3.0 8.0 0.00 0.00 0.00 28 1021.1
20260501165025 75 346 2.0 5.0 0.00 0.00 0.00 29 1021.2
20260501164524 75 272 2.0 5.0 0.00 0.00 0.00 29 1021.2
20260501164024 75 80 2.0 9.0 0.00 0.00 0.00 28 1021.1
20260501163523 76 320 3.0 9.0 0.00 0.00 0.00 28 1021.2
20260501163024 76 344 3.0 7.0 0.00 0.00 0.00 30 1021.2
20260501162523 76 313 5.0 8.0 0.00 0.00 0.00 28 1021.2
20260501162023 76 44 3.0 7.0 0.00 0.00 0.00 29 1021.2
20260501161523 77 348 3.0 4.0 0.00 0.00 0.00 28 1021.2
20260501161023 78 343 2.0 9.0 0.00 0.00 0.00 29 1021.3
20260501160524 77 236 3.0 6.0 0.00 0.00 0.00 27 1021.3
20260501160024 77 326 2.0 9.0 0.00 0.00 0.00 29 1021.2
20260501155523 77 346 2.0 7.0 0.00 0.00 0.00 28 1021.3
20260501155024 76 13 3.0 10.0 0.00 0.00 0.00 28 1021.3
20260501154525 77 58 5.0 8.0 0.00 0.00 0.00 27 1021.4
20260501154024 78 12 2.0 7.0 0.00 0.00 0.00 28 1021.4
20260501153524 78 296 3.0 8.0 0.00 0.00 0.00 27 1021.5
20260501153023 78 355 3.0 8.0 0.00 0.00 0.00 30 1021.5
20260501152524 79 193 4.0 9.0 0.00 0.00 0.00 27 1021.6
20260501152024 79 306 3.0 6.0 0.00 0.00 0.00 31 1021.6
20260501151524 79 308 3.0 8.0 0.00 0.00 0.00 28 1021.7
20260501151024 79 315 1.0 4.0 0.00 0.00 0.00 27 1021.8
20260501150523 78 119 4.0 6.0 0.00 0.00 0.00 28 1021.8
20260501150024 78 305 2.0 7.0 0.00 0.00 0.00 28 1021.9